Year,Month,Day,Hour,Minute,Value (Times are PST for temperature in C)
2015,08,10,00,00,15.60
2015,08,10,00,01,15.60
2015,08,10,00,02,15.60
2015,08,10,00,03,15.60
2015,08,10,00,04,15.60
2015,08,10,00,05,15.60
2015,08,10,00,06,15.50
2015,08,10,00,07,15.50
2015,08,10,00,08,15.50
2015,08,10,00,09,15.50
2015,08,10,00,10,15.50
2015,08,10,00,11,15.50
2015,08,10,00,12,15.50
2015,08,10,00,13,15.50
2015,08,10,00,14,15.50
2015,08,10,00,15,15.50
2015,08,10,00,16,15.50
2015,08,10,00,17,15.50
2015,08,10,00,18,15.50
2015,08,10,00,19,15.50
2015,08,10,00,20,15.50
2015,08,10,00,21,15.50
2015,08,10,00,22,15.50
2015,08,10,00,23,15.50
2015,08,10,00,24,15.50
2015,08,10,00,25,15.50
2015,08,10,00,26,15.40
2015,08,10,00,27,15.40
2015,08,10,00,28,15.40
2015,08,10,00,29,15.40
2015,08,10,00,30,15.40
2015,08,10,00,31,15.40
2015,08,10,00,32,15.40
2015,08,10,00,33,15.40
2015,08,10,00,34,15.40
2015,08,10,00,35,15.40
2015,08,10,00,36,15.40
2015,08,10,00,37,15.40
2015,08,10,00,38,15.30
2015,08,10,00,39,15.30
2015,08,10,00,40,15.30
2015,08,10,00,41,15.30
2015,08,10,00,42,15.30
2015,08,10,00,43,15.30
2015,08,10,00,44,15.30
2015,08,10,00,45,15.30
2015,08,10,00,46,15.30
2015,08,10,00,47,15.30
2015,08,10,00,48,15.30
2015,08,10,00,49,15.30
2015,08,10,00,50,15.30
2015,08,10,00,51,15.30
2015,08,10,00,52,15.30
2015,08,10,00,53,15.30
2015,08,10,00,54,15.30
2015,08,10,00,55,15.30
2015,08,10,00,56,15.30
2015,08,10,00,57,15.30
2015,08,10,00,58,15.30
2015,08,10,00,59,15.30
2015,08,10,01,00,15.30
2015,08,10,01,01,15.20
2015,08,10,01,02,15.20
2015,08,10,01,03,15.20
2015,08,10,01,04,15.20
2015,08,10,01,05,15.20
2015,08,10,01,06,15.10
2015,08,10,01,07,15.10
2015,08,10,01,08,15.10
2015,08,10,01,09,15.00
2015,08,10,01,10,15.00
2015,08,10,01,11,15.00
2015,08,10,01,12,15.00
2015,08,10,01,13,15.00
2015,08,10,01,14,15.00
2015,08,10,01,15,15.00
2015,08,10,01,16,15.00
2015,08,10,01,17,15.00
2015,08,10,01,18,15.00
2015,08,10,01,19,15.00
2015,08,10,01,20,15.00
2015,08,10,01,21,15.00
2015,08,10,01,22,15.00
2015,08,10,01,23,15.00
2015,08,10,01,24,15.00
2015,08,10,01,25,15.00
2015,08,10,01,26,15.00
2015,08,10,01,27,15.00
2015,08,10,01,28,15.00
2015,08,10,01,29,14.90
2015,08,10,01,30,15.00
2015,08,10,01,31,15.00
2015,08,10,01,32,15.00
2015,08,10,01,33,15.00
2015,08,10,01,34,15.00
2015,08,10,01,35,15.00
2015,08,10,01,36,15.00
2015,08,10,01,37,15.00
2015,08,10,01,38,15.00
2015,08,10,01,39,15.00
2015,08,10,01,40,15.00
2015,08,10,01,41,15.00
2015,08,10,01,42,15.00
2015,08,10,01,43,15.00
2015,08,10,01,44,15.00
2015,08,10,01,45,14.90
2015,08,10,01,46,14.90
2015,08,10,01,47,14.90
2015,08,10,01,48,14.90
2015,08,10,01,49,14.90
2015,08,10,01,50,14.90
2015,08,10,01,51,14.90
2015,08,10,01,52,14.80
2015,08,10,01,53,14.80
2015,08,10,01,54,14.80
2015,08,10,01,55,14.80
2015,08,10,01,56,14.80
2015,08,10,01,57,14.80
2015,08,10,01,58,14.80
2015,08,10,01,59,14.80
2015,08,10,02,00,14.80
2015,08,10,02,01,14.80
2015,08,10,02,02,14.80
2015,08,10,02,03,14.80
2015,08,10,02,04,14.80
2015,08,10,02,05,14.80
2015,08,10,02,06,14.80
2015,08,10,02,07,14.80
2015,08,10,02,08,14.80
2015,08,10,02,09,14.80
2015,08,10,02,10,14.80
2015,08,10,02,11,14.80
2015,08,10,02,12,14.80
2015,08,10,02,13,14.80
2015,08,10,02,14,14.80
2015,08,10,02,15,14.70
2015,08,10,02,16,14.70
2015,08,10,02,17,14.70
2015,08,10,02,18,14.70
2015,08,10,02,19,14.70
2015,08,10,02,20,14.70
2015,08,10,02,21,14.60
2015,08,10,02,22,14.60
2015,08,10,02,23,14.60
2015,08,10,02,24,14.60
2015,08,10,02,25,14.60
2015,08,10,02,26,14.60
2015,08,10,02,27,14.60
2015,08,10,02,28,14.60
2015,08,10,02,29,14.50
2015,08,10,02,30,14.50
2015,08,10,02,31,14.50
2015,08,10,02,32,14.50
2015,08,10,02,33,14.50
2015,08,10,02,34,14.50
2015,08,10,02,35,14.50
2015,08,10,02,36,14.50
2015,08,10,02,37,14.60
2015,08,10,02,38,14.60
2015,08,10,02,39,14.60
2015,08,10,02,40,14.60
2015,08,10,02,41,14.60
2015,08,10,02,42,14.60
2015,08,10,02,43,14.60
2015,08,10,02,44,14.60
2015,08,10,02,45,14.60
2015,08,10,02,46,14.60
2015,08,10,02,47,14.60
2015,08,10,02,48,14.60
2015,08,10,02,49,14.60
2015,08,10,02,50,14.70
2015,08,10,02,51,14.70
2015,08,10,02,52,14.70
2015,08,10,02,53,14.70
2015,08,10,02,54,14.70
2015,08,10,02,55,14.70
2015,08,10,02,56,14.60
2015,08,10,02,57,14.60
2015,08,10,02,58,14.60
2015,08,10,02,59,14.60
2015,08,10,03,00,14.60
2015,08,10,03,01,14.60
2015,08,10,03,02,14.60
2015,08,10,03,03,14.60
2015,08,10,03,04,14.60
2015,08,10,03,05,14.60
2015,08,10,03,06,14.60
2015,08,10,03,07,14.50
2015,08,10,03,08,14.50
2015,08,10,03,09,14.50
2015,08,10,03,10,14.50
2015,08,10,03,11,14.50
2015,08,10,03,12,14.40
2015,08,10,03,13,14.40
2015,08,10,03,14,14.40
2015,08,10,03,15,14.40
2015,08,10,03,16,14.40
2015,08,10,03,17,14.40
2015,08,10,03,18,14.40
2015,08,10,03,19,14.40
2015,08,10,03,20,14.40
2015,08,10,03,21,14.40
2015,08,10,03,22,14.40
2015,08,10,03,23,14.30
2015,08,10,03,24,14.30
2015,08,10,03,25,14.30
2015,08,10,03,26,14.30
2015,08,10,03,27,14.30
2015,08,10,03,28,14.30
2015,08,10,03,29,14.30
2015,08,10,03,30,14.30
2015,08,10,03,31,14.30
2015,08,10,03,32,14.30
2015,08,10,03,33,14.30
2015,08,10,03,34,14.30
2015,08,10,03,35,14.30
2015,08,10,03,36,14.30
2015,08,10,03,37,14.20
2015,08,10,03,38,14.20
2015,08,10,03,39,14.20
2015,08,10,03,40,14.20
2015,08,10,03,41,14.20
2015,08,10,03,42,14.20
2015,08,10,03,43,14.20
2015,08,10,03,44,14.20
2015,08,10,03,45,14.20
2015,08,10,03,49,14.20
2015,08,10,03,50,14.20
2015,08,10,03,51,14.20
2015,08,10,03,52,14.20
2015,08,10,03,53,14.20
2015,08,10,03,54,14.20
2015,08,10,03,55,14.10
2015,08,10,03,56,14.10
2015,08,10,03,57,14.10
2015,08,10,03,58,14.10
2015,08,10,03,59,14.10
2015,08,10,04,00,14.10
2015,08,10,04,01,14.10
2015,08,10,04,02,14.10
2015,08,10,04,03,14.10
2015,08,10,04,04,14.10
2015,08,10,04,05,14.10
2015,08,10,04,06,14.10
2015,08,10,04,07,14.10
2015,08,10,04,08,14.10
2015,08,10,04,09,14.10
2015,08,10,04,10,14.10
2015,08,10,04,11,14.10
2015,08,10,04,12,14.10
2015,08,10,04,13,14.10
2015,08,10,04,14,14.00
2015,08,10,04,15,14.00
2015,08,10,04,16,14.00
2015,08,10,04,17,14.00
2015,08,10,04,18,14.00
2015,08,10,04,19,14.00
2015,08,10,04,20,14.00
2015,08,10,04,21,13.90
2015,08,10,04,22,13.90
2015,08,10,04,23,13.90
2015,08,10,04,24,13.90
2015,08,10,04,25,13.90
2015,08,10,04,26,13.90
2015,08,10,04,27,13.90
2015,08,10,04,28,13.90
2015,08,10,04,29,13.80
2015,08,10,04,30,13.80
2015,08,10,04,31,13.80
2015,08,10,04,32,13.80
2015,08,10,04,33,13.80
2015,08,10,04,34,13.80
2015,08,10,04,35,13.80
2015,08,10,04,36,13.80
2015,08,10,04,37,13.80
2015,08,10,04,38,13.80
2015,08,10,04,39,13.80
2015,08,10,04,40,13.80
2015,08,10,04,41,13.80
2015,08,10,04,42,13.80
2015,08,10,04,43,13.80
2015,08,10,04,44,13.80
2015,08,10,04,45,13.80
2015,08,10,04,46,13.80
2015,08,10,04,47,13.80
2015,08,10,04,48,13.80
2015,08,10,04,49,13.80
2015,08,10,04,50,13.80
2015,08,10,04,51,13.80
2015,08,10,04,52,13.80
2015,08,10,04,53,13.80
2015,08,10,04,54,13.80
2015,08,10,04,55,13.80
2015,08,10,04,56,13.70
2015,08,10,04,57,13.70
2015,08,10,04,58,13.70
2015,08,10,04,59,13.70
2015,08,10,05,00,13.70
2015,08,10,05,01,13.70
2015,08,10,05,02,13.70
2015,08,10,05,03,13.70
2015,08,10,05,04,13.70
2015,08,10,05,05,13.70
2015,08,10,05,06,13.80
2015,08,10,05,07,13.80
2015,08,10,05,08,13.80
2015,08,10,05,09,13.80
2015,08,10,05,10,13.80
2015,08,10,05,11,13.80
2015,08,10,05,12,13.80
2015,08,10,05,13,13.80
2015,08,10,05,14,13.80
2015,08,10,05,15,13.80
2015,08,10,05,16,13.80
2015,08,10,05,17,13.80
2015,08,10,05,18,13.80
2015,08,10,05,19,13.80
2015,08,10,05,20,13.80
2015,08,10,05,21,13.70
2015,08,10,05,22,13.70
2015,08,10,05,23,13.70
2015,08,10,05,24,13.70
2015,08,10,05,25,13.70
2015,08,10,05,26,13.70
2015,08,10,05,27,13.70
2015,08,10,05,28,13.70
2015,08,10,05,29,13.70
2015,08,10,05,30,13.70
2015,08,10,05,31,13.70
2015,08,10,05,32,13.80
2015,08,10,05,33,13.80
2015,08,10,05,34,13.80
2015,08,10,05,35,13.70
2015,08,10,05,36,13.70
2015,08,10,05,37,13.70
2015,08,10,05,38,13.70
2015,08,10,05,39,13.70
2015,08,10,05,40,13.70
2015,08,10,05,41,13.70
2015,08,10,05,42,13.70
2015,08,10,05,43,13.70
2015,08,10,05,44,13.70
2015,08,10,05,45,13.70
2015,08,10,05,46,13.70
2015,08,10,05,47,13.60
2015,08,10,05,48,13.60
2015,08,10,05,49,13.60
2015,08,10,05,50,13.60
2015,08,10,05,51,13.60
2015,08,10,05,52,13.60
2015,08,10,05,53,13.60
2015,08,10,05,54,13.60
2015,08,10,05,55,13.60
2015,08,10,05,56,13.60
2015,08,10,05,57,13.60
2015,08,10,05,58,13.60
2015,08,10,05,59,13.60
2015,08,10,06,00,13.60
2015,08,10,06,01,13.70
2015,08,10,06,02,13.70
2015,08,10,06,03,13.70
2015,08,10,06,04,13.70
2015,08,10,06,05,13.70
2015,08,10,06,06,13.70
2015,08,10,06,07,13.70
2015,08,10,06,08,13.70
2015,08,10,06,09,13.80
2015,08,10,06,10,13.80
2015,08,10,06,11,13.80
2015,08,10,06,12,13.80
2015,08,10,06,13,13.80
2015,08,10,06,14,13.80
2015,08,10,06,15,13.80
2015,08,10,06,16,13.80
2015,08,10,06,17,13.80
2015,08,10,06,18,13.80
2015,08,10,06,19,13.80
2015,08,10,06,20,13.80
2015,08,10,06,21,13.80
2015,08,10,06,22,13.90
2015,08,10,06,23,13.90
2015,08,10,06,24,13.90
2015,08,10,06,25,13.90
2015,08,10,06,26,13.90
2015,08,10,06,27,13.90
2015,08,10,06,28,13.90
2015,08,10,06,29,13.90
2015,08,10,06,30,13.90
2015,08,10,06,31,13.90
2015,08,10,06,32,14.00
2015,08,10,06,33,14.00
2015,08,10,06,34,14.00
2015,08,10,06,35,14.00
2015,08,10,06,36,14.00
2015,08,10,06,37,14.10
2015,08,10,06,38,14.10
2015,08,10,06,39,14.10
2015,08,10,06,40,14.10
2015,08,10,06,41,14.10
2015,08,10,06,42,14.10
2015,08,10,06,43,14.10
2015,08,10,06,44,14.10
2015,08,10,06,45,14.10
2015,08,10,06,46,14.20
2015,08,10,06,47,14.20
2015,08,10,06,48,14.20
2015,08,10,06,49,14.20
2015,08,10,06,50,14.20
2015,08,10,06,51,14.20
2015,08,10,06,52,14.20
2015,08,10,06,53,14.20
2015,08,10,06,54,14.30
2015,08,10,06,55,14.30
2015,08,10,06,56,14.30
2015,08,10,06,57,14.30
2015,08,10,06,58,14.30
2015,08,10,06,59,14.30
2015,08,10,07,00,14.30
2015,08,10,07,01,14.40
2015,08,10,07,02,14.40
2015,08,10,07,03,14.40
2015,08,10,07,04,14.40
2015,08,10,07,05,14.40
2015,08,10,07,06,14.40
2015,08,10,07,07,14.40
2015,08,10,07,08,14.40
2015,08,10,07,09,14.50
2015,08,10,07,10,14.50
2015,08,10,07,11,14.50
2015,08,10,07,12,14.60
2015,08,10,07,13,14.60
2015,08,10,07,14,14.60
2015,08,10,07,15,14.60
2015,08,10,07,16,14.60
2015,08,10,07,17,14.60
2015,08,10,07,18,14.60
2015,08,10,07,19,14.60
2015,08,10,07,20,14.70
2015,08,10,07,21,14.70
2015,08,10,07,22,14.70
2015,08,10,07,23,14.70
2015,08,10,07,24,14.70
2015,08,10,07,25,14.70
2015,08,10,07,26,14.70
2015,08,10,07,27,14.80
2015,08,10,07,28,14.80
2015,08,10,07,29,14.80
2015,08,10,07,30,14.80
2015,08,10,07,31,14.80
2015,08,10,07,32,14.80
2015,08,10,07,33,14.90
2015,08,10,07,34,14.90
2015,08,10,07,35,15.00
2015,08,10,07,36,15.00
2015,08,10,07,37,15.00
2015,08,10,07,38,15.00
2015,08,10,07,39,15.00
2015,08,10,07,40,15.00
2015,08,10,07,41,15.00
2015,08,10,07,42,15.00
2015,08,10,07,43,15.00
2015,08,10,07,44,15.00
2015,08,10,07,45,15.00
2015,08,10,07,46,15.00
2015,08,10,07,47,15.00
2015,08,10,07,48,15.00
2015,08,10,07,49,15.00
2015,08,10,07,50,15.00
2015,08,10,07,51,15.00
2015,08,10,07,52,15.00
2015,08,10,07,53,15.00
2015,08,10,07,54,15.00
2015,08,10,07,55,15.00
2015,08,10,07,56,15.00
2015,08,10,07,57,15.00
2015,08,10,07,58,15.00
2015,08,10,07,59,15.00
2015,08,10,08,00,15.00
2015,08,10,08,01,15.00
2015,08,10,08,02,15.10
2015,08,10,08,03,15.10
2015,08,10,08,04,15.20
2015,08,10,08,05,15.20
2015,08,10,08,06,15.20
2015,08,10,08,07,15.30
2015,08,10,08,08,15.30
2015,08,10,08,09,15.30
2015,08,10,08,10,15.40
2015,08,10,08,11,15.40
2015,08,10,08,12,15.50
2015,08,10,08,13,15.50
2015,08,10,08,14,15.60
2015,08,10,08,15,15.60
2015,08,10,08,16,15.70
2015,08,10,08,17,15.70
2015,08,10,08,18,15.70
2015,08,10,08,19,15.70
2015,08,10,08,20,15.70
2015,08,10,08,21,15.70
2015,08,10,08,22,15.70
2015,08,10,08,23,15.80
2015,08,10,08,24,15.80
2015,08,10,08,25,15.80
2015,08,10,08,26,15.80
2015,08,10,08,27,15.80
2015,08,10,08,28,15.90
2015,08,10,08,29,15.90
2015,08,10,08,30,16.00
2015,08,10,08,31,16.00
2015,08,10,08,32,16.00
2015,08,10,08,33,16.10
2015,08,10,08,34,16.10
2015,08,10,08,35,16.20
2015,08,10,08,36,16.20
2015,08,10,08,37,16.20
2015,08,10,08,38,16.20
2015,08,10,08,39,16.30
2015,08,10,08,40,16.30
2015,08,10,08,41,16.30
2015,08,10,08,42,16.40
2015,08,10,08,43,16.50
2015,08,10,08,44,16.50
2015,08,10,08,45,16.60
2015,08,10,08,46,16.70
2015,08,10,08,47,16.70
2015,08,10,08,48,16.70
2015,08,10,08,49,16.80
2015,08,10,08,50,16.80
2015,08,10,08,51,16.90
2015,08,10,08,52,16.90
2015,08,10,08,53,17.00
2015,08,10,08,54,17.10
2015,08,10,08,55,17.10
2015,08,10,08,56,17.20
2015,08,10,08,57,17.20
2015,08,10,08,58,17.30
2015,08,10,08,59,17.30
2015,08,10,09,00,17.30
2015,08,10,09,01,17.40
2015,08,10,09,02,17.40
2015,08,10,09,03,17.40
2015,08,10,09,04,17.50
2015,08,10,09,05,17.50
2015,08,10,09,06,17.60
2015,08,10,09,07,17.60
2015,08,10,09,08,17.60
2015,08,10,09,09,17.60
2015,08,10,09,10,17.60
2015,08,10,09,11,17.60
2015,08,10,09,12,17.60
2015,08,10,09,13,17.50
2015,08,10,09,14,17.50
2015,08,10,09,15,17.40
2015,08,10,09,16,17.40
2015,08,10,09,17,17.40
2015,08,10,09,18,17.30
2015,08,10,09,19,17.30
2015,08,10,09,20,17.30
2015,08,10,09,21,17.20
2015,08,10,09,22,17.20
2015,08,10,09,23,17.20
2015,08,10,09,24,17.20
2015,08,10,09,25,17.10
2015,08,10,09,26,17.10
2015,08,10,09,27,17.10
2015,08,10,09,28,17.10
2015,08,10,09,29,17.10
2015,08,10,09,30,17.10
2015,08,10,09,31,17.10
2015,08,10,09,32,17.10
2015,08,10,09,33,17.10
2015,08,10,09,34,17.10
2015,08,10,09,35,17.10
2015,08,10,09,36,17.20
2015,08,10,09,37,17.20
2015,08,10,09,38,17.20
2015,08,10,09,39,17.20
2015,08,10,09,40,17.30
2015,08,10,09,41,17.30
2015,08,10,09,42,17.40
2015,08,10,09,43,17.40
2015,08,10,09,44,17.50
2015,08,10,09,45,17.60
2015,08,10,09,46,17.60
2015,08,10,09,47,17.70
2015,08,10,09,48,17.70
2015,08,10,09,49,17.80
2015,08,10,09,50,17.80
2015,08,10,09,51,17.90
2015,08,10,09,52,17.90
2015,08,10,09,53,18.00
2015,08,10,09,54,18.00
2015,08,10,09,55,18.10
2015,08,10,09,56,18.20
2015,08,10,09,57,18.20
2015,08,10,09,58,18.30
2015,08,10,09,59,18.30
2015,08,10,10,00,18.30
2015,08,10,10,01,18.40
2015,08,10,10,02,18.40
2015,08,10,10,03,18.50
2015,08,10,10,04,18.50
2015,08,10,10,05,18.60
2015,08,10,10,06,18.60
2015,08,10,10,07,18.70
2015,08,10,10,08,18.70
2015,08,10,10,09,18.70
2015,08,10,10,10,18.80
2015,08,10,10,11,18.80
2015,08,10,10,12,18.80
2015,08,10,10,13,18.90
2015,08,10,10,14,19.00
2015,08,10,10,15,19.00
2015,08,10,10,16,19.10
2015,08,10,10,17,19.10
2015,08,10,10,18,19.10
2015,08,10,10,19,19.00
2015,08,10,10,20,19.00
2015,08,10,10,21,18.90
2015,08,10,10,22,18.90
2015,08,10,10,23,18.80
2015,08,10,10,24,18.80
2015,08,10,10,25,18.70
2015,08,10,10,26,18.70
2015,08,10,10,27,18.70
2015,08,10,10,28,18.70
2015,08,10,10,29,18.70
2015,08,10,10,30,18.70
2015,08,10,10,31,18.70
2015,08,10,10,32,18.70
2015,08,10,10,33,18.70
2015,08,10,10,34,18.80
2015,08,10,10,35,18.80
2015,08,10,10,36,18.80
2015,08,10,10,37,18.90
2015,08,10,10,38,19.10
2015,08,10,10,39,19.20
2015,08,10,10,40,19.20
2015,08,10,10,41,19.30
2015,08,10,10,42,19.40
2015,08,10,10,43,19.40
2015,08,10,10,44,19.60
2015,08,10,10,45,19.70
2015,08,10,10,46,19.80
2015,08,10,10,47,19.80
2015,08,10,10,48,19.90
2015,08,10,10,49,19.90
2015,08,10,10,50,20.00
2015,08,10,10,51,20.10
2015,08,10,10,52,20.20
2015,08,10,10,53,20.30
2015,08,10,10,54,20.30
2015,08,10,10,55,20.30
2015,08,10,10,56,20.40
2015,08,10,10,57,20.40
2015,08,10,10,58,20.50
2015,08,10,10,59,20.50
2015,08,10,11,00,20.50
2015,08,10,11,01,20.40
2015,08,10,11,02,20.40
2015,08,10,11,03,20.40
2015,08,10,11,04,20.50
2015,08,10,11,05,20.50
2015,08,10,11,06,20.50
2015,08,10,11,07,20.60
2015,08,10,11,08,20.60
2015,08,10,11,09,20.60
2015,08,10,11,10,20.60
2015,08,10,11,11,20.60
2015,08,10,11,12,20.60
2015,08,10,11,13,20.60
2015,08,10,11,14,20.70
2015,08,10,11,15,20.80
2015,08,10,11,16,20.80
2015,08,10,11,17,20.90
2015,08,10,11,18,20.90
2015,08,10,11,19,21.00
2015,08,10,11,20,21.00
2015,08,10,11,21,21.10
2015,08,10,11,22,21.20
2015,08,10,11,23,21.30
2015,08,10,11,24,21.50
2015,08,10,11,25,21.70
2015,08,10,11,26,21.80
2015,08,10,11,27,22.00
2015,08,10,11,28,22.10
2015,08,10,11,29,22.20
2015,08,10,11,30,22.30
2015,08,10,11,31,22.30
2015,08,10,11,32,22.40
2015,08,10,11,33,22.40
2015,08,10,11,34,22.40
2015,08,10,11,35,22.40
2015,08,10,11,36,22.40
2015,08,10,11,37,22.30
2015,08,10,11,38,22.30
2015,08,10,11,39,22.10
2015,08,10,11,40,21.90
2015,08,10,11,41,21.70
2015,08,10,11,42,21.50
2015,08,10,11,43,21.40
2015,08,10,11,44,21.30
2015,08,10,11,45,21.20
2015,08,10,11,46,21.20
2015,08,10,11,47,21.20
2015,08,10,11,48,21.20
2015,08,10,11,49,21.20
2015,08,10,11,50,21.20
2015,08,10,11,51,21.30
2015,08,10,11,52,21.30
2015,08,10,11,53,21.30
2015,08,10,11,54,21.40
2015,08,10,11,55,21.40
2015,08,10,11,56,21.40
2015,08,10,11,57,21.50
2015,08,10,11,58,21.50
2015,08,10,11,59,21.50
2015,08,10,12,00,21.50
2015,08,10,12,01,21.60
2015,08,10,12,02,21.60
2015,08,10,12,03,21.60
2015,08,10,12,04,21.60
2015,08,10,12,05,21.60
2015,08,10,12,06,21.70
2015,08,10,12,07,21.70
2015,08,10,12,08,21.70
2015,08,10,12,09,21.70
2015,08,10,12,10,21.70
2015,08,10,12,11,21.70
2015,08,10,12,12,21.70
2015,08,10,12,13,21.70
2015,08,10,12,14,21.70
2015,08,10,12,15,21.70
2015,08,10,12,16,21.80
2015,08,10,12,17,21.80
2015,08,10,12,18,21.80
2015,08,10,12,19,21.90
2015,08,10,12,20,21.90
2015,08,10,12,21,21.80
2015,08,10,12,22,21.80
2015,08,10,12,23,21.80
2015,08,10,12,24,21.80
2015,08,10,12,25,21.80
2015,08,10,12,26,21.80
2015,08,10,12,27,21.80
2015,08,10,12,28,21.80
2015,08,10,12,29,21.80
2015,08,10,12,30,21.90
2015,08,10,12,31,22.00
2015,08,10,12,32,22.10
2015,08,10,12,33,22.10
2015,08,10,12,34,22.20
2015,08,10,12,35,22.10
2015,08,10,12,36,22.10
2015,08,10,12,37,22.10
2015,08,10,12,38,22.20
2015,08,10,12,39,22.20
2015,08,10,12,40,22.30
2015,08,10,12,41,22.30
2015,08,10,12,42,22.40
2015,08,10,12,43,22.50
2015,08,10,12,44,22.60
2015,08,10,12,45,22.70
2015,08,10,12,46,22.70
2015,08,10,12,47,22.70
2015,08,10,12,48,22.70
2015,08,10,12,49,22.80
2015,08,10,12,50,22.80
2015,08,10,12,51,22.80
2015,08,10,12,52,22.90
2015,08,10,12,53,23.00
2015,08,10,12,54,23.20
2015,08,10,12,55,23.30
2015,08,10,12,56,23.40
2015,08,10,12,57,23.40
2015,08,10,12,58,23.40
2015,08,10,12,59,23.40
2015,08,10,13,00,23.50
2015,08,10,13,01,23.60
2015,08,10,13,02,23.60
2015,08,10,13,03,23.60
2015,08,10,13,04,23.60
2015,08,10,13,05,23.70
2015,08,10,13,06,23.70
2015,08,10,13,07,23.70
2015,08,10,13,08,23.60
2015,08,10,13,09,23.60
2015,08,10,13,10,23.40
2015,08,10,13,11,23.00
2015,08,10,13,12,22.80
2015,08,10,13,13,22.60
2015,08,10,13,14,22.50
2015,08,10,13,15,22.50
2015,08,10,13,16,22.60
2015,08,10,13,17,22.60
2015,08,10,13,18,22.70
2015,08,10,13,19,22.80
2015,08,10,13,20,22.80
2015,08,10,13,21,22.80
2015,08,10,13,22,22.90
2015,08,10,13,23,22.90
2015,08,10,13,24,23.00
2015,08,10,13,25,23.10
2015,08,10,13,26,23.10
2015,08,10,13,27,23.10
2015,08,10,13,28,23.10
2015,08,10,13,29,23.10
2015,08,10,13,30,23.10
2015,08,10,13,31,23.20
2015,08,10,13,32,23.30
2015,08,10,13,33,23.40
2015,08,10,13,34,23.50
2015,08,10,13,35,23.60
2015,08,10,13,36,23.60
2015,08,10,13,37,23.70
2015,08,10,13,38,23.70
2015,08,10,13,39,23.70
2015,08,10,13,40,23.70
2015,08,10,13,41,23.70
2015,08,10,13,42,23.70
2015,08,10,13,43,23.60
2015,08,10,13,44,23.60
2015,08,10,13,45,23.50
2015,08,10,13,46,23.50
2015,08,10,13,47,23.40
2015,08,10,13,48,23.40
2015,08,10,13,49,23.50
2015,08,10,13,50,23.60
2015,08,10,13,51,23.70
2015,08,10,13,52,23.70
2015,08,10,13,53,23.80
2015,08,10,13,54,23.70
2015,08,10,13,55,23.70
2015,08,10,13,56,23.70
2015,08,10,13,57,23.70
2015,08,10,13,58,23.60
2015,08,10,13,59,23.50
2015,08,10,14,00,23.20
2015,08,10,14,01,23.00
2015,08,10,14,02,22.90
2015,08,10,14,03,23.00
2015,08,10,14,04,23.10
2015,08,10,14,05,23.30
2015,08,10,14,06,23.40
2015,08,10,14,07,23.50
2015,08,10,14,08,23.60
2015,08,10,14,09,23.70
2015,08,10,14,10,23.80
2015,08,10,14,11,23.80
2015,08,10,14,12,23.80
2015,08,10,14,13,23.90
2015,08,10,14,14,23.90
2015,08,10,14,15,24.00
2015,08,10,14,16,24.10
2015,08,10,14,17,24.10
2015,08,10,14,18,24.20
2015,08,10,14,19,24.30
2015,08,10,14,20,24.30
2015,08,10,14,21,24.30
2015,08,10,14,22,24.20
2015,08,10,14,23,24.10
2015,08,10,14,24,24.00
2015,08,10,14,25,23.90
2015,08,10,14,26,23.80
2015,08,10,14,27,23.80
2015,08,10,14,28,23.80
2015,08,10,14,29,23.90
2015,08,10,14,30,23.90
2015,08,10,14,31,24.10
2015,08,10,14,32,24.10
2015,08,10,14,33,24.20
2015,08,10,14,34,24.20
2015,08,10,14,35,24.20
2015,08,10,14,36,24.20
2015,08,10,14,37,24.10
2015,08,10,14,38,24.10
2015,08,10,14,39,24.00
2015,08,10,14,40,23.90
2015,08,10,14,41,23.90
2015,08,10,14,42,23.90
2015,08,10,14,43,23.90
2015,08,10,14,44,23.90
2015,08,10,14,45,23.90
2015,08,10,14,46,24.00
2015,08,10,14,47,24.10
2015,08,10,14,48,24.10
2015,08,10,14,49,24.20
2015,08,10,14,50,24.30
2015,08,10,14,51,24.30
2015,08,10,14,52,24.30
2015,08,10,14,53,24.30
2015,08,10,14,54,24.30
2015,08,10,14,55,24.40
2015,08,10,14,56,24.50
2015,08,10,14,57,24.60
2015,08,10,14,58,24.60
2015,08,10,14,59,24.60
2015,08,10,15,00,24.60
2015,08,10,15,01,24.60
2015,08,10,15,02,24.60
2015,08,10,15,03,24.60
2015,08,10,15,04,24.60
2015,08,10,15,05,24.70
2015,08,10,15,06,24.60
2015,08,10,15,07,24.50
2015,08,10,15,08,24.40
2015,08,10,15,09,24.40
2015,08,10,15,10,24.30
2015,08,10,15,11,24.40
2015,08,10,15,12,24.40
2015,08,10,15,13,24.50
2015,08,10,15,14,24.60
2015,08,10,15,15,24.60
2015,08,10,15,16,24.70
2015,08,10,15,17,24.70
2015,08,10,15,18,24.80
2015,08,10,15,19,24.80
2015,08,10,15,20,24.80
2015,08,10,15,21,24.90
2015,08,10,15,22,24.90
2015,08,10,15,23,25.00
2015,08,10,15,24,25.00
2015,08,10,15,25,25.00
2015,08,10,15,26,25.00
2015,08,10,15,27,25.00
2015,08,10,15,28,24.90
2015,08,10,15,29,24.90
2015,08,10,15,30,24.70
2015,08,10,15,31,24.60
2015,08,10,15,32,24.60
2015,08,10,15,33,24.60
2015,08,10,15,34,24.60
2015,08,10,15,35,24.70
2015,08,10,15,36,24.80
2015,08,10,15,37,24.90
2015,08,10,15,38,24.90
2015,08,10,15,39,25.00
2015,08,10,15,40,25.10
2015,08,10,15,41,25.20
2015,08,10,15,42,25.20
2015,08,10,15,43,25.20
2015,08,10,15,44,25.20
2015,08,10,15,45,25.20
2015,08,10,15,46,25.20
2015,08,10,15,47,25.20
2015,08,10,15,48,25.20
2015,08,10,15,49,25.30
2015,08,10,15,50,25.30
2015,08,10,15,51,25.40
2015,08,10,15,52,25.40
2015,08,10,15,53,25.40
2015,08,10,15,54,25.40
2015,08,10,15,55,25.40
2015,08,10,15,56,25.40
2015,08,10,15,57,25.40
2015,08,10,15,58,25.40
2015,08,10,15,59,25.40
2015,08,10,16,00,25.30
2015,08,10,16,01,25.30
2015,08,10,16,02,25.30
2015,08,10,16,03,25.30
2015,08,10,16,04,25.30
2015,08,10,16,05,25.30
2015,08,10,16,06,25.30
2015,08,10,16,07,25.40
2015,08,10,16,08,25.50
2015,08,10,16,09,25.60
2015,08,10,16,10,25.70
2015,08,10,16,11,25.80
2015,08,10,16,12,25.80
2015,08,10,16,13,25.90
2015,08,10,16,14,26.00
2015,08,10,16,15,26.00
2015,08,10,16,16,26.00
2015,08,10,16,17,25.90
2015,08,10,16,18,25.90
2015,08,10,16,19,25.80
2015,08,10,16,20,25.80
2015,08,10,16,21,25.80
2015,08,10,16,22,25.70
2015,08,10,16,23,25.70
2015,08,10,16,24,25.70
2015,08,10,16,25,25.70
2015,08,10,16,26,25.70
2015,08,10,16,27,25.70
2015,08,10,16,28,25.80
2015,08,10,16,29,25.90
2015,08,10,16,30,25.90
2015,08,10,16,31,25.90
2015,08,10,16,32,25.90
2015,08,10,16,33,26.00
2015,08,10,16,34,26.10
2015,08,10,16,35,26.00
2015,08,10,16,36,25.90
2015,08,10,16,37,25.90
2015,08,10,16,38,25.90
2015,08,10,16,39,25.90
2015,08,10,16,40,25.80
2015,08,10,16,41,25.80
2015,08,10,16,42,25.80
2015,08,10,16,43,25.80
2015,08,10,16,44,25.80
2015,08,10,16,45,25.80
2015,08,10,16,46,25.80
2015,08,10,16,47,25.80
2015,08,10,16,48,25.80
2015,08,10,16,49,25.80
2015,08,10,16,50,25.90
2015,08,10,16,51,25.90
2015,08,10,16,52,25.90
2015,08,10,16,53,25.80
2015,08,10,16,54,25.70
2015,08,10,16,55,25.70
2015,08,10,16,56,25.70
2015,08,10,16,57,25.70
2015,08,10,16,58,25.70
2015,08,10,16,59,25.80
2015,08,10,17,00,25.80
2015,08,10,17,01,25.90
2015,08,10,17,02,25.90
2015,08,10,17,03,25.90
2015,08,10,17,04,25.90
2015,08,10,17,05,25.90
2015,08,10,17,06,25.90
2015,08,10,17,07,25.90
2015,08,10,17,08,25.80
2015,08,10,17,09,25.70
2015,08,10,17,10,25.60
2015,08,10,17,11,25.50
2015,08,10,17,12,25.40
2015,08,10,17,13,25.40
2015,08,10,17,14,25.30
2015,08,10,17,15,25.20
2015,08,10,17,16,25.20
2015,08,10,17,17,25.30
2015,08,10,17,18,25.30
2015,08,10,17,19,25.30
2015,08,10,17,20,25.30
2015,08,10,17,21,25.40
2015,08,10,17,22,25.50